Location: Coffee Ditch
(40.9640°N, 122.7500°W)
Time: 07:09:01
(UTC+00:00)

IRS-1D - Pass Details

Date: 08 September 2024
Orbit: 738 x 812 km, 98.8° (Epoch: 05 October)

Event Time Altitude Azimuth Distance (km) Brightness Sun altitude
Rises 12:01:49 0° 15° (NNE) 3,325 7.4 -19.5°
Reaches altitude 10° 12:04:10 10° 17° (NNE) 2,397 6.6 -19.1°
Maximum altitude 12:09:29 76° 103° (ESE) 840 3.7 -18.2°
Drops below altitude 10° 12:14:48 10° 189° (S) 2,392 5.7 -17.2°
Enters shadow 12:15:16 - 190° (S) 2,576 5.9 -17.2°
